CW3742 Weather Reports


time (UTC)temp
C
wind
direction
speed
KPH
gust
KPH
rain 1hr
cm
rain 24hr
cm
rain mn
cm
humidity
%
barometer
mb
20260904200018 35 203 12.9 27.4 0.00 0.00 0.00 57 994.2
20260904193018 35 203 12.9 24.1 0.00 0.00 0.00 56 994.6
20260904190016 34 225 12.9 24.1 0.00 0.00 0.00 59 994.8
20260904183018 33 225 12.9 29.0 0.00 0.00 0.00 58 995.1
20260904180018 33 225 12.9 22.5 0.00 0.00 0.00 59 995.6
20260904173018 33 225 9.7 22.5 0.00 0.00 0.00 60 995.8
20260904170018 33 248 6.4 19.3 0.00 0.00 0.00 62 995.8
20260904163038 32 248 8.0 20.9 0.00 0.00 0.00 63 995.7
20260904160018 32 225 8.0 20.9 0.00 0.00 0.00 65 995.7
20260904153016 31 225 8.0 17.7 0.00 0.00 0.00 67 995.6
20260904150039 30 225 6.4 14.5 0.00 0.00 0.00 70 995.5
20260904143019 29 225 6.4 14.5 0.00 0.00 0.00 72 995.2
20260904140020 27 225 9.7 16.1 0.00 0.00 0.00 77 994.8
20260904133018 26 225 11.3 19.3 0.00 0.00 0.00 78 994.8
20260904130018 26 225 9.7 16.1 0.00 0.00 0.00 80 994.8
20260904123018 25 225 8.0 16.1 0.00 0.00 0.00 82 994.4
20260904120018 25 203 9.7 14.5 0.00 0.00 0.00 83 994.1
20260904113018 24 203 8.0 12.9 0.00 0.00 0.00 84 993.9
20260904110018 24 180 8.0 12.9 0.00 0.00 0.00 84 993.7
20260904103018 24 180 8.0 12.9 0.00 0.00 0.00 84 993.8
20260904100036 25 158 8.0 14.5 0.00 0.00 0.00 84 993.7
20260904093016 25 158 8.0 14.5 0.00 0.00 0.00 82 993.3
20260904090016 25 158 8.0 12.9 0.00 0.00 0.00 82 993.1
20260904083016 25 158 8.0 11.3 0.00 0.00 0.00 82 993.1
20260904080036 26 158 6.4 12.9 0.00 0.00 0.00 80 993.1
20260904073018 25 135 6.4 9.7 0.00 0.00 0.00 83 993.2
20260904070016 26 158 6.4 11.3 0.00 0.00 0.00 82 993.4
20260904063016 26 158 6.4 11.3 0.00 0.00 0.00 82 993.6
20260904060056 26 135 6.4 11.3 0.00 0.00 0.00 82 993.7
20260904053056 26 135 6.4 9.7 0.00 0.00 0.00 81 993.9
20260904050016 26 135 6.4 9.7 0.00 0.00 0.00 81 993.7
20260904043018 26 135 6.4 8.0 0.00 0.00 0.00 82 993.5
20260904040018 27 158 6.4 11.3 0.00 0.00 0.00 81 993.5
20260904033018 27 158 6.4 11.3 0.00 0.00 0.00 80 993.4
20260904030018 28 158 4.8 11.3 0.00 0.00 0.00 79 993.4
20260904023018 28 180 6.4 11.3 0.00 0.00 0.00 78 992.9
20260904020038 29 180 6.4 14.5 0.00 0.00 0.00 77 992.7
20260904013018 29 180 6.4 11.3 0.00 0.00 0.00 76 992.6
20260904010018 30 158 4.8 9.7 0.00 0.00 0.00 74 992.4
20260904003016 31 158 6.4 11.3 0.00 0.00 0.00 72 992.3
20260904000016 31 158 6.4 14.5 0.00 0.00 0.00 70 992.3
20260903233016 32 158 8.0 14.5 0.00 0.00 0.00 68 992.4
20260903230017 33 158 6.4 12.9 0.00 0.00 0.00 65 992.7
20260903223016 34 158 8.0 16.1 0.00 0.00 0.00 62 992.8
20260903220036 35 180 8.0 17.7 0.00 0.00 0.00 61 993.1
20260903213016 35 225 9.7 14.5 0.00 0.00 0.00 59 993.4
20260903210016 35 203 8.0 14.5 0.00 0.00 0.00 57 993.4
20260903203016 35 225 4.8 14.5 0.00 0.00 0.00 58 993.6